| time (UTC) | temp F | wind direction | speed knots | gust knots | rain 1hr in | rain 24hr in | rain mn in | humidity % | barometer mb |
| 20260510033346 | 65 | 353 | 0.0 | 0.0 | 0.00 | 0.00 | 0.00 | 57 | 1008.2 |
| 20260510030350 | 66 | 353 | 0.0 | 0.0 | 0.00 | 0.00 | 0.00 | 56 | 1008.2 |
| 20260510023351 | 66 | 353 | 0.0 | 0.0 | 0.00 | 0.00 | 0.00 | 56 | 1008.0 |
| 20260510020341 | 66 | 353 | 0.0 | 0.0 | 0.00 | 0.00 | 0.00 | 57 | 1007.9 |
| 20260510013346 | 67 | 353 | 0.0 | 0.0 | 0.00 | 0.00 | 0.00 | 53 | 1007.7 |
| 20260510010355 | 67 | 353 | 0.0 | 0.0 | 0.00 | 0.00 | 0.00 | 53 | 1007.0 |
| 20260510003355 | 67 | 353 | 0.0 | 0.0 | 0.00 | 0.00 | 0.00 | 53 | 1006.7 |
| 20260510000343 | 68 | 352 | 0.0 | 0.0 | 0.00 | 0.00 | 0.00 | 51 | 1006.6 |
| 20260509233348 | 69 | 353 | 0.0 | 0.0 | 0.00 | 0.00 | 0.00 | 51 | 1006.3 |
| 20260509230356 | 70 | 353 | 0.0 | 0.0 | 0.00 | 0.00 | 0.00 | 50 | 1006.1 |
| 20260509223341 | 68 | 352 | 0.0 | 0.0 | 0.00 | 0.00 | 0.00 | 52 | 1006.1 |
| 20260509220346 | 70 | 353 | 0.0 | 0.0 | 0.00 | 0.00 | 0.00 | 52 | 1006.2 |
| 20260509213352 | 68 | 353 | 0.0 | 0.0 | 0.00 | 0.00 | 0.00 | 52 | 1006.3 |
| 20260509210339 | 69 | 353 | 0.0 | 0.0 | 0.00 | 0.00 | 0.00 | 52 | 1006.0 |
| 20260509203346 | 70 | 353 | 0.0 | 0.0 | 0.00 | 0.00 | 0.00 | 53 | 1006.2 |
| 20260509200353 | 68 | 353 | 0.0 | 0.0 | 0.00 | 0.00 | 0.00 | 55 | 1006.1 |
| 20260509193341 | 66 | 353 | 0.0 | 0.0 | 0.00 | 0.00 | 0.00 | 56 | 1006.4 |
| 20260509190350 | 65 | 353 | 0.0 | 0.0 | 0.00 | 0.00 | 0.00 | 57 | 1006.9 |
| 20260509183357 | 65 | 353 | 0.0 | 0.0 | 0.00 | 0.00 | 0.00 | 57 | 1007.3 |
| 20260509180345 | 64 | 353 | 0.0 | 0.0 | 0.00 | 0.00 | 0.00 | 57 | 1007.4 |
| 20260509173407 | 64 | 353 | 0.0 | 0.0 | 0.00 | 0.00 | 0.00 | 57 | 1008.1 |
| 20260509170354 | 64 | 353 | 0.0 | 0.0 | 0.00 | 0.00 | 0.00 | 57 | 1008.1 |
| 20260509163342 | 62 | 353 | 0.0 | 0.0 | 0.00 | 0.00 | 0.00 | 57 | 1008.5 |
| 20260509160352 | 62 | 353 | 0.0 | 0.0 | 0.00 | 0.00 | 0.00 | 57 | 1008.2 |
| 20260509153342 | 61 | 353 | 0.0 | 0.0 | 0.00 | 0.00 | 0.00 | 58 | 1008.5 |
| 20260509150348 | 60 | 353 | 0.0 | 0.0 | 0.00 | 0.00 | 0.00 | 58 | 1008.5 |
| 20260509143354 | 59 | 353 | 0.0 | 0.0 | 0.00 | 0.00 | 0.00 | 58 | 1008.6 |
| 20260509140345 | 56 | 353 | 0.0 | 0.0 | 0.00 | 0.00 | 0.00 | 58 | 1009.0 |
| 20260509133352 | 53 | 353 | 0.0 | 0.0 | 0.00 | 0.00 | 0.00 | 53 | 1008.8 |
| 20260509130418 | 53 | 353 | 0.0 | 0.0 | 0.00 | 0.00 | 0.00 | 56 | 1009.1 |
| 20260509123342 | 53 | 352 | 0.0 | 0.0 | 0.00 | 0.00 | 0.00 | 59 | 1008.9 |
| 20260509120415 | 53 | 353 | 0.0 | 0.0 | 0.00 | 0.00 | 0.00 | 59 | 1008.6 |
| 20260509113339 | 54 | 353 | 0.0 | 0.0 | 0.00 | 0.00 | 0.00 | 59 | 1008.7 |
| 20260509110350 | 0 | 0.0 | 0.0 | 0.00 | 0.00 | 0.00 | 1008.3 | ||
| 20260509103412 | 0 | 0.0 | 0.0 | 0.00 | 0.00 | 0.00 | 1008.3 | ||
| 20260509093340 | 57 | 345 | 0.0 | 0.0 | 0.00 | 0.00 | 0.00 | 48 | 1008.3 |
| 20260509090346 | 58 | 353 | 0.0 | 6.1 | 0.00 | 0.00 | 0.00 | 48 | 1008.4 |
| 20260509083353 | 57 | 352 | 0.0 | 5.2 | 0.00 | 0.00 | 0.00 | 50 | 1008.6 |
| 20260509080344 | 57 | 352 | 0.0 | 0.9 | 0.00 | 0.00 | 0.00 | 51 | 1008.8 |
| 20260509073412 | 59 | 352 | 0.0 | 2.6 | 0.00 | 0.00 | 0.00 | 46 | 1008.7 |
| 20260509070342 | 59 | 353 | 0.0 | 1.7 | 0.00 | 0.00 | 0.00 | 46 | 1008.6 |
| 20260509063405 | 59 | 353 | 0.0 | 0.9 | 0.00 | 0.00 | 0.00 | 45 | 1008.9 |
| 20260509060354 | 60 | 352 | 0.0 | 1.7 | 0.00 | 0.00 | 0.00 | 43 | 1009.0 |
| 20260509053339 | 60 | 352 | 0.0 | 4.3 | 0.00 | 0.00 | 0.00 | 44 | 1009.1 |
| 20260509050351 | 59 | 352 | 0.0 | 4.3 | 0.00 | 0.00 | 0.00 | 46 | 1009.6 |
| 20260509043337 | 60 | 353 | 0.0 | 5.2 | 0.00 | 0.00 | 0.00 | 45 | 1009.4 |
| 20260509040341 | 60 | 353 | 0.0 | 3.5 | 0.00 | 0.00 | 0.00 | 44 | 1009.4 |